Форум клана ЧПУшников

Информация о пользователе

Привет, Гость! Войдите или зарегистрируйтесь.


Вы здесь » Форум клана ЧПУшников » Лазерные станки


Лазерные станки

Тем 1 страница 80 из 533

Тема Ответов Просмотров Последнее сообщение
560 11780 16-08-2019 06:08:40  serge78ss
871 62388 13-08-2019 16:29:40  Jek44
166 7237 14-03-2019 15:48:56  Vegas 52
3 51 Вчера 09:44:44  kartinka
12 217 Вчера 06:59:33  Kinetic
6 166 18-08-2019 19:59:01  urim
25 1429 18-08-2019 15:51:35  godrik1985
3 145 17-08-2019 08:43:36  Giedrius
2 132 16-08-2019 15:19:26  ilya37rus
10 На ходу пропал луч.  Анатолий w38
3 77 16-08-2019 10:46:54  Andy52280
196 6927 16-08-2019 06:28:59  serge78ss
7 112 16-08-2019 06:23:10  serge78ss
1 57 14-08-2019 20:26:11  ilya37rus
2 93 13-08-2019 07:21:14  RD3
1 41 01-08-2019 17:14:40  Sanana
9 240 25-07-2019 22:47:27  kopuloff
14 279 25-07-2019 18:15:23  jane
24 300 25-07-2019 10:26:34  Kuz
16 310 24-07-2019 12:28:25  Alex76
15 491 22-07-2019 10:43:00  Kuz
10 192 19-07-2019 12:54:43  Sanana
1 120 18-07-2019 22:39:57  Kirian
2 188 16-07-2019 16:16:36  sgluk
24 Мой Veno 503  mikhAN
96 2653 10-07-2019 17:59:24  mikhAN
3 89 05-07-2019 13:03:01  Andy52280
3 214 05-07-2019 10:30:50  qump
132 7471 03-07-2019 19:31:39  igordad
19 410 24-06-2019 13:29:16  igordad
12 251 06-06-2019 23:25:05  АндрейKosiv
2 154 03-06-2019 16:48:51  Andy52280
1 142 27-05-2019 02:42:37  ИгорьМ
1 92 26-05-2019 04:10:06  Bassser
9 224 25-05-2019 17:56:20  Dolflex
171 5165 24-05-2019 19:44:19  musicman3
283 10656 14-05-2019 07:57:39  esb
41 1055 13-05-2019 19:09:39  _Cuper_
4 102 13-05-2019 10:56:34  m911yp
7 223 07-05-2019 13:02:02  Kuz
2 155 07-05-2019 12:59:07  Kuz
0 69 03-05-2019 09:57:22  Op023
12 309 02-05-2019 16:59:51  Fredi1903
236 22453 30-04-2019 12:06:13  miamifan91
43 контроллер TL-403  Алексей Степанов
5 123 29-04-2019 18:38:22  Сергеич
148 5048 16-04-2019 17:19:23  WandereR
4 184 10-04-2019 10:19:31  Kuz
37 1818 09-04-2019 22:53:04  musicman3
4 112 06-04-2019 10:49:10  Andy52280
121 4333 05-04-2019 09:04:27  esb
49 AutoLaser  yurk1151
35 1457 02-04-2019 21:52:42  scanwloker
0 108 30-03-2019 00:39:47  Vivan
6 190 24-03-2019 14:50:34  ptolik
56 2643 21-03-2019 15:06:08  vasa29
3 90 21-03-2019 02:52:19  ИгорьМ
331 30448 18-03-2019 16:38:09  Andy52280
23 1019 18-03-2019 10:05:01  Vegas 52
14 446 15-03-2019 11:08:09  Vegas 52
7 353 15-03-2019 10:55:38  Kuz
262 7596 07-03-2019 09:10:05  ilya37rus
14 306 06-03-2019 14:51:28  Kuz
10 243 06-03-2019 14:11:11  D1mitriy
1 104 28-02-2019 14:23:17  Andy52280
16 385 27-02-2019 18:17:37  esb
463 19319 27-02-2019 12:46:26  iamkuchka
0 145 24-02-2019 11:56:21  Mix78
492 14798 22-02-2019 11:25:53  Зависть
2 98 16-02-2019 13:58:18  DmFam
67 Замена 304-му  WandereR
9 178 14-02-2019 12:54:26  WandereR
2 178 05-02-2019 17:37:34  vasa29
69 Нужна помощь новичку.  Роман Боронин
1 130 05-02-2019 10:40:55  shatrovmaxim
98 3580 03-02-2019 09:59:19  vasa29
71 Trocen vs RUIDA  ptolik
7 291 03-02-2019 00:30:22  liberty3000
7 227 02-02-2019 00:56:42  Денис Лебедев
214 19642 01-02-2019 14:02:16  ilya37rus
17 815 01-02-2019 10:03:05  Антон1989
209 16041 31-01-2019 12:57:42  Apostol
2 309 31-01-2019 12:25:46  Антон1989
2 173 31-01-2019 07:07:24  Антон1989
15 216 30-01-2019 15:10:48  Jeka One
200 9232 30-01-2019 02:11:11  ИгорьМ
13 154 25-01-2019 12:28:07  WandereR

Вы здесь » Форум клана ЧПУшников » Лазерные станки